Aéroport int. de Victoria, Colombie-Britannique

Conditions des dernières 24 heures

Ce tableau est un sommaire des conditions météo couvrant les dernières 24 heures. Ce sommaire inclut les paramètres suivants: température, humidité, point de rosée, direction et vitesse du vent, pression barométrique, facteur de refroidissement éolien ou indice humidex.
Date / Heure
(HAP)
Conditions Temp (°F) Humidite (%) Point de rose (°F) Vent (mph) Pression (pouces) Visibilité (miles)
16 avril 2014
20:00 Pluie faible 48 98 48 ESE 9 29.9 2
19:00 Pluie faible 49 97 48 ESE 9 30.0 5
18:00 Pluie faible 50 93 48 SE 11 rafale 19 30.0 10
17:00 Pluie faible 50 93 48 SE 10 30.0 10
16:00 Pluie faible 51 86 48 SE 12 30.0 12
15:00 Généralement nuageux 52   83 47 SE 12 rafale 20 30.0 12
14:00 Partiellement nuageux 51 86 47 SE 14 30.0 12
13:00 Partiellement nuageux 51 87 48 SE 9 30.0 10
12:00 Partiellement nuageux 51 85 47 SE 13 30.0 10
11:00 Généralement nuageux 50 91 48 SE 11 30.0 10
10:00 Nuageux 49 94 47 SE 10 30.0 10
9:00 Faible averse de pluie 49 93 47 SSE 9 30.0 10
8:00 Généralement nuageux 48 94 46 SSE 8 30.0 10
7:00 Partiellement nuageux 47 94 46 SSE 12 30.0 7
6:00 Brume 47 96 46 SSE 11 30.0 6
5:00 Nuageux 47 97 46 SE 9 30.0 7
4:00 Généralement nuageux 46   97 46 ESE 8 30.0 7
3:00 Généralement nuageux 46   98 46 ESE 7 30.0 7
2:00 Partiellement nuageux 46   97 46 ESE 8 30.0 8
1:00 Pluie faible 46   97 45 SSE 3 30.1 8
0:00 Pluie faible 46   97 46 SE 3 30.1 10
15 avril 2014
23:00 Pluie faible 47 96 46 E 4 30.1 10
22:00 Pluie faible 48 95 47 ESE 4 30.1 12
21:00 Pluie faible 48 94 47 SE 7 30.1 12
20:00 Pluie faible 49 89 46 SE 9 30.1 12
N.D.
non disponible
 ↑ 
température la plus haute
 ↓ 
température la plus basse

Si vous désirez plus de données historiques sur les conditions météo, s.v.p. visitez Données climatologiques en ligne.